Location: Tom
(33.0437°N, 96.9452°W)
Time: 06:16:39
(UTC-06:00)

Envisat - Pass Details

Date: 26 January 2019
Orbit: 764 x 766 km, 98.2° (Epoch: 20 February)

Event Time Altitude Azimuth Distance (km) Brightness Sun altitude
Rises 18:17:14 0° 133° (SE) 3,220 5.9 -5.4°
Reaches altitude 10° 18:19:59 10° 118° (ESE) 2,298 5.1 -5.9°
Maximum altitude 18:23:48 22° 68° (ENE) 1,624 4.1 -6.7°
Drops below altitude 10° 18:27:38 10° 19° (NNE) 2,307 5.1 -7.4°
Sets 18:30:23 0° 5° (N) 3,236 6.0 -8.0°
